This is the latest recevied weather packets stored in our database for station/object IR4UCA. If no packets are shown the sender has not sent any weather packets the latest 10 day(s).
| Time | Temp. | Humidity | Pressure | Rain* | Wind** | Luminosity | Snow |
|---|---|---|---|---|---|---|---|
| 1777818584 | 26.11° C | 35% | 1016.5 hPa | 0 mm | - | - | - |
| 1777817386 | 25.56° C | 36% | 1016.8 hPa | 0 mm | - | - | - |
| 1777816784 | 26.11° C | 37% | 1016.8 hPa | 0 mm | - | - | - |
| 1777816186 | 25.56° C | 36% | 1016.8 hPa | 0 mm | - | - | - |
| 1777815586 | 25.56° C | 36% | 1016.9 hPa | 0 mm | - | - | - |
| 1777814986 | 25.56° C | 36% | 1017 hPa | 0 mm | - | - | - |
| 1777813784 | 25.56° C | 34% | 1017.2 hPa | 0 mm | - | - | - |
| 1777813186 | 25.56° C | 36% | 1017.3 hPa | 0 mm | - | - | - |
| 1777811387 | 25° C | 36% | 1017.6 hPa | 0 mm | - | - | - |
| 1777810784 | 25° C | 36% | 1017.6 hPa | 0 mm | - | - | - |
| 1777810185 | 25° C | 37% | 1017.7 hPa | 0 mm | - | - | - |
| 1777808987 | 24.44° C | 37% | 1017.8 hPa | 0 mm | - | - | - |
| 1777808386 | 24.44° C | 38% | 1017.8 hPa | 0 mm | - | - | - |
| 1777807787 | 24.44° C | 39% | 1017.8 hPa | 0 mm | - | - | - |
| 1777806587 | 24.44° C | 38% | 1017.9 hPa | 0 mm | - | - | - |
| 1777805987 | 24.44° C | 38% | 1018 hPa | 0 mm | - | - | - |
| 1777805386 | 24.44° C | 38% | 1018 hPa | 0 mm | - | - | - |
| 1777804787 | 24.44° C | 40% | 1018.1 hPa | 0 mm | - | - | - |
| 1777804186 | 23.89° C | 38% | 1018.2 hPa | 0 mm | - | - | - |
| 1777802986 | 23.89° C | 38% | 1018.4 hPa | 0 mm | - | - | - |
| 1777802387 | 23.33° C | 37% | 1018.4 hPa | 0 mm | - | - | - |
| 1777801786 | 23.89° C | 38% | 1018.5 hPa | 0 mm | - | - | - |
| 1777800586 | 23.33° C | 40% | 1018.6 hPa | 0 mm | - | - | - |
| 1777798787 | 21.67° C | 44% | 1018.8 hPa | 0 mm | - | - | - |
| 1777798185 | 21.11° C | 47% | 1018.9 hPa | 0 mm | - | - | - |
* Rain latest hour (hover to see other rain measurements)
** Current wind speed in m/s (hover to see current wind gust speed)